Stations météo

réclame
Mon MeteoGroup
Arvika, Suède (2411): Température de l'air & dewpoint: 10.06.2019 00:00:00 - 16.06.2019 00:00:00 (CEST)Arvika, Suède (2411): Vitesse du vent & gusts: 10.06.2019 00:00:00 - 16.06.2019 00:00:00 (CEST)Arvika, Suède (2411): Direction du vent: 10.06.2019 00:00:00 - 16.06.2019 00:00:00 (CEST)Arvika, Suède (2411): reduced air pressure: 10.06.2019 00:00:00 - 16.06.2019 00:00:00 (CEST)Arvika, Suède (2411): visibility: 10.06.2019 00:00:00 - 16.06.2019 00:00:00 (CEST)Arvika, Suède (2411): Quantités de précipitations: 10.06.2019 00:00:00 - 16.06.2019 00:00:00 (CEST)
Date & Time tt [°C] td [°C] ff [km/h] ff [knt] fx [km/h] fx [knt] dd ppp [hPa] vv [km] rr [mm]
16.06.2019 00:00:00 14,9 12,2 3 2 4 2 SSE 1014,0 50 0,0
15.06.2019 23:00:00 13,5 12,6 3 1 7 4 NW 1014,0 37 0,0
15.06.2019 22:00:00 16,2 14,7 0 0 3 2 N 1014,4 43 0,0
15.06.2019 21:00:00 22,1 15,2 0 0 15 8 N 1014,5 50 0,0
15.06.2019 20:00:00 23,9 10,2 9 5 16 9 S 1014,5 46 0,0
15.06.2019 19:00:00 25,2 10,6 4 2 10 5 SSE 1014,6 12 0,0
15.06.2019 18:00:00 25,3 11,5 3 1 8 4 N 1015,1 30 0,0
15.06.2019 17:00:00 25,2 10,3 4 2 9 5 NNW 1015,6 22 0,0
15.06.2019 16:00:00 24,6 11,5 5 3 16 8 S 1016,2 35 0,0
15.06.2019 15:00:00 25,0 10,8 5 3 11 6 ESE 1016,8 39 0,0
15.06.2019 14:00:00 23,2 12,8 3 1 14 8 NNE 1017,0 38 0,0
15.06.2019 13:00:00 23,1 12,1 4 2 13 7 E 1018,1 34 0,0
15.06.2019 12:00:00 22,2 11,3 4 2 7 4 NNE 1018,2 41 0,0
15.06.2019 11:00:00 21,0 11,9 4 2 11 6 SSW 1018,9 33 0,0
15.06.2019 10:00:00 19,9 13,4 3 2 8 4 SSE 1019,0 37 0,0
15.06.2019 09:00:00 16,5 16,3 0 0 5 3 N 1019,2 8 0,0
15.06.2019 08:00:00 13,2 13,2 3 2 7 4 NNE 1019,4 0,2 0,0
15.06.2019 07:00:00 11,9 11,9 0 0 4 2 N 1019,7 0,6 0,0
15.06.2019 06:00:00 11,1 11,1 3 1 - - N 1019,7 0,2 0,0
15.06.2019 05:00:00 10,2 10,2 2 1 6 3 ESE 1019,7 0,2 0,0
15.06.2019 04:00:00 9,7 9,7 0 0 5 3 N 1019,7 0,2 0,0
15.06.2019 03:00:00 9,9 9,9 0 0 2 1 N 1019,7 0,4 0,0
15.06.2019 02:00:00 10,4 10,4 0 0 4 2 N 1019,8 0,4 0,0
15.06.2019 01:00:00 10,8 10,8 2 1 5 3 N 1020,0 0,6 0,0
15.06.2019 00:00:00 11,7 11,7 0 0 5 3 N 1019,8 0,2 0,0
14.06.2019 23:00:00 12,3 12,1 0 0 3 2 N 1019,5 0,2 0,0
14.06.2019 22:00:00 14,2 13,7 0 0 4 2 N 1019,2 2,1 0,0
14.06.2019 21:00:00 17,0 15,3 0 0 4 2 N 1018,7 27 0,0
14.06.2019 20:00:00 16,5 15,2 0 0 6 4 N 1018,5 35 0,0
14.06.2019 19:00:00 15,7 14,4 3 1 10 5 E 1018,9 25 0,8
14.06.2019 18:00:00 16,5 14,7 3 2 28 15 NNE 1018,9 45 2,4
14.06.2019 17:00:00 19,7 12,5 5 3 16 9 SW 1018,5 50 0,0
14.06.2019 16:00:00 21,8 12,9 6 4 13 7 SE 1018,3 31 0,0
14.06.2019 15:00:00 19,6 12,8 6 3 14 8 SSE 1018,9 43 0,0
14.06.2019 14:00:00 18,4 14,1 4 2 9 5 N 1019,4 40 0,0
14.06.2019 13:00:00 14,6 13,1 5 3 11 6 SW 1019,9 35 0,2
14.06.2019 12:00:00 15,0 12,1 2 1 10 6 S 1019,7 48 0,0
14.06.2019 11:00:00 15,3 11,5 7 4 11 6 S 1019,8 40 0,0
14.06.2019 10:00:00 13,8 11,5 3 2 10 5 SSE 1019,3 47 0,0
14.06.2019 09:00:00 12,7 11,6 2 1 11 6 E 1019,1 35 0,0
14.06.2019 08:00:00 11,2 11,2 5 3 16 9 SSE 1019,0 11 0,0
14.06.2019 07:00:00 9,6 9,6 0 0 5 3 N 1018,6 0,9 0,0
14.06.2019 06:00:00 8,4 8,4 3 2 5 3 SSE 1018,4 0,2 0,0
14.06.2019 05:00:00 7,0 7,0 0 0 2 1 N 1018,1 0,5 0,0
14.06.2019 04:00:00 6,4 6,4 0 0 3 2 N 1018,1 0,2 0,0
14.06.2019 03:00:00 5,9 5,9 0 0 4 2 N 1017,4 0,2 0,0
14.06.2019 02:00:00 6,6 6,6 0 0 - - N 1017,4 2,3 0,0
14.06.2019 01:00:00 7,7 7,7 0 0 3 1 N 1017,7 0,2 0,0
14.06.2019 00:00:00 8,8 8,7 0 0 4 2 N 1017,5 0,1 0,0
13.06.2019 23:00:00 9,7 9,6 0 0 3 2 N 1016,9 0,2 0,0
13.06.2019 22:00:00 12,4 11,5 0 0 4 2 N 1015,8 5 0,0
13.06.2019 21:00:00 16,1 14,1 0 0 6 3 N 1015,1 30 0,0
13.06.2019 20:00:00 17,2 13,5 3 2 7 4 ESE 1014,7 29 0,0
13.06.2019 19:00:00 16,3 14,1 2 1 5 3 ENE 1014,3 31 0,0
13.06.2019 18:00:00 15,4 13,8 2 1 7 4 SSE 1014,0 22 0,0
13.06.2019 17:00:00 14,9 13,6 2 1 10 6 SSW 1013,6 7 0,0
13.06.2019 16:00:00 14,4 13,4 6 3 12 7 SE 1013,2 16 0,0
13.06.2019 15:00:00 13,9 13,4 6 3 16 8 SE 1013,1 3,8 0,0
13.06.2019 14:00:00 13,5 12,7 9 5 20 11 SSE 1012,6 6 0,0
13.06.2019 13:00:00 13,2 12,4 8 5 17 9 SE 1012,1 4,9 0,0
13.06.2019 12:00:00 12,7 11,8 8 5 16 9 SE 1011,7 29 0,0
13.06.2019 11:00:00 12,5 11,9 8 4 18 10 SSE 1011,4 4,5 0,1
13.06.2019 10:00:00 12,2 11,4 8 5 16 9 SE 1010,6 3,6 0,2
13.06.2019 09:00:00 11,9 11,3 5 3 15 8 SE 1010,4 11 0,0
13.06.2019 08:00:00 10,9 10,3 5 3 14 8 ESE 1010,5 3,8 0,1
13.06.2019 07:00:00 10,4 9,6 4 2 8 5 SE 1011,2 33 0,0
13.06.2019 06:00:00 10,1 9,3 3 1 15 8 ESE 1011,1 4,9 0,6
13.06.2019 05:00:00 10,1 9,5 4 2 12 7 NE 1010,6 41 1,2
13.06.2019 04:00:00 10,2 9,1 3 2 18 10 E 1012,1 2,7 3,5
13.06.2019 03:00:00 11,0 8,0 6 3 30 16 ENE 1012,1 21 0,0
13.06.2019 02:00:00 10,7 7,9 10 6 23 12 ENE 1013,9 50 0,0
13.06.2019 01:00:00 10,3 7,9 11 6 24 13 NE 1015,2 50 0,2
13.06.2019 00:00:00 10,4 7,5 10 5 23 12 ENE 1016,4 50 0,0
12.06.2019 23:00:00 10,0 7,2 9 5 24 13 NE 1017,3 50 0,0
12.06.2019 22:00:00 9,8 7,2 9 5 18 10 NE 1017,9 50 0,1
12.06.2019 21:00:00 10,1 7,5 9 5 29 15 ENE 1018,2 50 0,0
12.06.2019 20:00:00 10,1 7,5 9 5 21 12 NE 1018,8 50 0,0
12.06.2019 19:00:00 10,0 7,6 10 5 20 11 ENE 1019,8 50 0,0
12.06.2019 18:00:00 9,8 7,7 7 4 21 12 ENE 1020,1 40 0,1
12.06.2019 17:00:00 9,3 7,4 6 3 19 11 ENE 1021,0 41 0,7
12.06.2019 16:00:00 10,1 6,6 11 6 29 16 ENE 1021,4 20 0,0
12.06.2019 15:00:00 12,3 5,0 12 6 28 15 E 1021,3 50 0,0
12.06.2019 14:00:00 12,6 5,0 12 7 33 18 NE 1021,6 50 0,0
12.06.2019 13:00:00 13,1 4,3 15 8 37 20 ENE 1021,6 50 0,0
12.06.2019 12:00:00 12,6 4,6 9 5 23 12 NNE 1020,8 50 0,0
12.06.2019 11:00:00 12,3 3,8 10 5 30 16 ENE 1021,8 50 0,0
12.06.2019 10:00:00 11,8 4,0 10 5 26 14 ENE 1022,8 50 0,0
12.06.2019 09:00:00 11,7 4,7 10 6 26 14 ENE 1023,5 50 0,0
12.06.2019 08:00:00 11,0 4,7 5 3 19 10 ENE 1023,2 50 0,0
12.06.2019 07:00:00 10,6 4,9 5 3 16 9 ENE 1023,2 50 0,0
12.06.2019 06:00:00 10,3 5,1 10 5 23 12 ENE 1023,1 50 0,0
12.06.2019 05:00:00 10,3 6,1 11 6 21 11 NE 1023,7 50 0,0
12.06.2019 04:00:00 10,3 7,5 10 5 24 13 NE 1023,7 50 0,0
12.06.2019 03:00:00 10,5 7,7 13 7 33 18 NNE 1024,2 50 0,1
12.06.2019 02:00:00 10,6 9,0 10 5 23 12 NNE 1024,6 17 2,4
12.06.2019 01:00:00 10,6 9,2 3 2 24 13 WSW 1025,0 45 1,6
12.06.2019 00:00:00 10,8 8,6 9 5 18 10 N 1024,5 39 0,4
11.06.2019 23:00:00 11,4 8,3 8 5 34 19 NE 1023,5 29 0,3
11.06.2019 22:00:00 12,9 10,1 15 8 25 13 NNE 1022,6 45 0,3
11.06.2019 21:00:00 13,1 12,5 5 3 8 5 N 1023,0 11 1,0
11.06.2019 20:00:00 14,2 12,1 3 2 14 7 NE 1022,3 11 0,4
11.06.2019 19:00:00 15,0 11,6 4 2 24 13 E 1022,0 44 0,1
11.06.2019 18:00:00 16,6 10,7 11 6 21 11 E 1021,8 50 0,0
11.06.2019 17:00:00 17,2 10,6 14 8 30 16 ESE 1021,8 35 0,0
11.06.2019 16:00:00 18,8 10,1 13 7 26 14 ENE 1021,5 43 0,0
11.06.2019 15:00:00 19,8 10,5 13 7 31 17 E 1021,3 49 0,0
11.06.2019 14:00:00 19,9 9,2 13 7 - - ENE 1021,0 46 0,0
11.06.2019 13:00:00 19,7 11,5 12 6 26 14 ENE 1021,2 43 0,0
11.06.2019 12:00:00 19,9 11,9 10 6 25 13 NNE 1021,1 37 0,0
11.06.2019 11:00:00 18,6 10,2 11 6 23 13 NNE 1021,1 39 0,0
11.06.2019 10:00:00 16,6 8,3 10 5 24 13 ENE 1021,3 43 0,0
11.06.2019 09:00:00 17,2 10,1 0 0 - - N 1020,9 46 0,0
11.06.2019 08:00:00 13,2 9,8 3 2 7 4 SSE 1020,8 49 0,0
11.06.2019 07:00:00 10,7 9,5 0 0 - - N 1020,8 37 0,0
11.06.2019 06:00:00 7,9 7,9 0 0 4 2 N 1021,1 22 0,0
11.06.2019 05:00:00 6,0 6,0 0 0 4 2 N 1021,1 13 0,0
11.06.2019 04:00:00 4,4 4,3 0 0 3 1 N 1021,1 14 0,0
11.06.2019 03:00:00 4,0 3,9 0 0 3 2 N 1020,4 7 0,0
11.06.2019 02:00:00 5,2 5,1 0 0 3 2 N 1020,4 31 0,0
11.06.2019 01:00:00 6,1 6,0 0 0 3 2 N 1020,6 33 0,0
11.06.2019 00:00:00 6,3 6,0 0 0 4 2 N 1020,5 11 0,0
10.06.2019 23:00:00 7,7 6,9 0 0 2 1 N 1019,8 23 0,0
10.06.2019 22:00:00 10,4 8,8 0 0 4 2 N 1019,2 41 0,0
10.06.2019 21:00:00 16,4 8,6 0 0 13 7 N 1019,0 50 0,0
10.06.2019 20:00:00 18,4 6,3 5 3 14 8 WSW 1018,8 48 0,0
10.06.2019 19:00:00 18,9 4,6 5 3 - - SW 1018,5 44 0,0
10.06.2019 18:00:00 18,6 4,0 9 5 18 10 S 1018,5 42 0,0
10.06.2019 17:00:00 19,9 5,2 6 3 20 11 WSW 1018,6 37 0,0
10.06.2019 16:00:00 19,4 5,5 9 5 23 12 SW 1018,7 42 0,0
10.06.2019 15:00:00 19,1 4,4 10 5 - - SSW 1018,8 44 0,0
10.06.2019 14:00:00 19,6 6,0 7 4 25 13 SW 1018,6 46 0,0
10.06.2019 13:00:00 18,2 6,1 10 5 27 14 SSW 1018,8 38 0,0
10.06.2019 12:00:00 18,0 6,5 11 6 25 14 SSW 1018,9 37 0,0
10.06.2019 11:00:00 17,2 7,8 9 5 23 12 SSW 1019,0 40 0,0
10.06.2019 10:00:00 15,7 7,2 13 7 28 15 SSW 1019,0 41 0,0
10.06.2019 09:00:00 15,3 7,6 7 4 27 14 SW 1018,8 37 0,0
10.06.2019 08:00:00 13,7 7,2 9 5 20 11 SW 1018,6 41 0,0
10.06.2019 07:00:00 12,8 7,7 7 4 16 9 SSW 1018,5 35 0,0
10.06.2019 06:00:00 12,3 8,2 5 3 16 9 SSW 1018,4 36 0,0
10.06.2019 05:00:00 11,0 8,0 4 2 15 8 S 1018,3 38 0,0
10.06.2019 04:00:00 11,0 8,2 5 3 16 9 S 1018,2 37 0,0
10.06.2019 03:00:00 10,9 8,1 6 4 20 11 S 1017,7 32 0,0
10.06.2019 02:00:00 11,2 8,1 8 4 19 11 S 1017,8 28 0,0
10.06.2019 01:00:00 11,3 8,2 7 4 21 11 SSW 1017,5 31 0,0
10.06.2019 00:00:00 11,5 8,2 6 4 19 10 SSW 1017,3 28 0,0

tt = Température de l'air
td = dewpoint
ff = Vitesse du vent
fx = gusts
dd = Direction du vent
ppp = reduced air pressure
vv = visibility
rr = Quantités de précipitations

stations d'obs. à proximité